QPF
0.00 0.00 0.01 0.01 0.01 0.01 0.01 0.01 0.01 0.00 0.01 0.03 0.07 0.12 0.13 0.11 0.07 0.04 0.02 0.02 0.03 0.03 0.03 0.04 0.03 0.04 0.05 0.04 0.03 0.03 0.03 0.04 0.04 0.04 0.03 0.02 0.01 0.01 0.02 0.02 0.01 0.02 0.02
0.00 0.01 0.01 0.01 0.02 0.02 0.01 0.01 0.01 0.00 0.01 0.01 0.03 0.08 0.13 0.14 0.10 0.05 0.03 0.02 0.02 0.03 0.02 0.02 0.02 0.02 0.03 0.04 0.04 0.04 0.03 0.03 0.04 0.05 0.04 0.03 0.02 0.01 0.01 0.01 0.01 0.02 0.02
0.01 0.02 0.02 0.02 0.02 0.02 0.01 0.01 0.01 0.01 0.01 0.01 0.01 0.06 0.11 0.15 0.14 0.10 0.08 0.04 0.02 0.02 0.02 0.02 0.01 0.01 0.01 0.02 0.03 0.04 0.04 0.03 0.04 0.04 0.05 0.05 0.04 0.03 0.02 0.01 0.01 0.02 0.02
0.01 0.02 0.02 0.02 0.02 0.02 0.02 0.01 0.01 0.01 0.01 0.01 0.01 0.03 0.10 0.16 0.17 0.13 0.10 0.07 0.05 0.03 0.03 0.03 0.02 0.01 0.01 0.01 0.01 0.03 0.04 0.03 0.03 0.03 0.03 0.04 0.04 0.04 0.04 0.03 0.02 0.03 0.02
0.01 0.01 0.02 0.02 0.02 0.02 0.02 0.02 0.02 0.01 0.01 0.01 0.01 0.01 0.06 0.13 0.16 0.17 0.13 0.10 0.07 0.05 0.04 0.04 0.03 0.02 0.01 0.01 0.01 0.01 0.02 0.03 0.03 0.02 0.02 0.02 0.03 0.03 0.03 0.03 0.03 0.03 0.04
0.01 0.01 0.01 0.02 0.02 0.02 0.02 0.03 0.02 0.02 0.02 0.02 0.02 0.02 0.03 0.08 0.11 0.16 0.17 0.14 0.10 0.07 0.05 0.05 0.04 0.03 0.02 0.02 0.02 0.01 0.02 0.02 0.03 0.03 0.02 0.02 0.02 0.03 0.04 0.04 0.04 0.04 0.04
0.01 0.01 0.01 0.03 0.02 0.02 0.03 0.03 0.03 0.02 0.02 0.02 0.02 0.02 0.03 0.05 0.09 0.11 0.17 0.22 0.18 0.09 0.07 0.05 0.05 0.05 0.04 0.02 0.02 0.02 0.02 0.02 0.02 0.02 0.02 0.02 0.03 0.03 0.03 0.04 0.05 0.05 0.06
0.01 0.01 0.02 0.02 0.02 0.02 0.02 0.03 0.03 0.03 0.02 0.02 0.02 0.02 0.03 0.05 0.08 0.10 0.12 0.16 0.25 0.22 0.12 0.07 0.06 0.05 0.05 0.05 0.04 0.03 0.03 0.02 0.02 0.02 0.02 0.03 0.03 0.03 0.02 0.03 0.03 0.03 0.04
0.01 0.01 0.02 0.02 0.02 0.02 0.02 0.02 0.03 0.03 0.03 0.02 0.02 0.03 0.03 0.04 0.06 0.09 0.11 0.12 0.13 0.20 0.21 0.13 0.09 0.07 0.06 0.06 0.06 0.05 0.04 0.03 0.03 0.03 0.03 0.03 0.03 0.03 0.03 0.02 0.03 0.03 0.03
0.01 0.01 0.01 0.02 0.02 0.02 0.02 0.02 0.02 0.04 0.04 0.03 0.03 0.03 0.03 0.05 0.06 0.08 0.10 0.11 0.12 0.14 0.20 0.21 0.15 0.11 0.09 0.08 0.06 0.06 0.05 0.04 0.04 0.03 0.04 0.04 0.04 0.03 0.03 0.03 0.02 0.03 0.03
0.01 0.01 0.01 0.01 0.02 0.02 0.02 0.01 0.02 0.03 0.03 0.04 0.03 0.03 0.03 0.05 0.08 0.08 0.08 0.09 0.10 0.11 0.13 0.18 0.20 0.17 0.13 0.10 0.09 0.07 0.06 0.06 0.05 0.05 0.05 0.04 0.04 0.04 0.04 0.03 0.03 0.03 0.03
0.01 0.01 0.01 0.01 0.01 0.01 0.02 0.01 0.01 0.02 0.02 0.03 0.03 0.03 0.03 0.04 0.07 0.08 0.08 0.09 0.08 0.08 0.08 0.09 0.12 0.15 0.14 0.11 0.09 0.09 0.08 0.07 0.06 0.06 0.06 0.05 0.04 0.04 0.03 0.03 0.03 0.03 0.03
0.01 0.01 0.01 0.01 0.01 0.01 0.01 0.02 0.02 0.01 0.01 0.02 0.02 0.02 0.02 0.03 0.05 0.07 0.08 0.09 0.09 0.08 0.07 0.06 0.06 0.08 0.09 0.09 0.07 0.07 0.08 0.08 0.07 0.07 0.06 0.06 0.05 0.04 0.04 0.03 0.03 0.02 0.02
0.01 0.01 0.01 0.01 0.01 0.01 0.01 0.01 0.01 0.01 0.01 0.01 0.01 0.02 0.02 0.03 0.05 0.06 0.06 0.07 0.08 0.10 0.10 0.07 0.05 0.04 0.05 0.06 0.06 0.05 0.05 0.07 0.08 0.08 0.07 0.06 0.06 0.05 0.04 0.04 0.04 0.03 0.03
0.01 0.01 0.01 0.01 0.01 0.01 0.01 0.02 0.01 0.01 0.01 0.01 0.01 0.01 0.02 0.03 0.04 0.05 0.05 0.06 0.07 0.08 0.09 0.08 0.06 0.04 0.04 0.04 0.04 0.05 0.05 0.05 0.05 0.07 0.07 0.06 0.06 0.06 0.06 0.05 0.04 0.04 0.04
0.02 0.02 0.01 0.01 0.01 0.01 0.01 0.02 0.02 0.02 0.01 0.01 0.01 0.01 0.01 0.02 0.03 0.04 0.04 0.04 0.06 0.07 0.08 0.07 0.06 0.05 0.04 0.03 0.04 0.06 0.06 0.05 0.05 0.05 0.05 0.05 0.06 0.06 0.06 0.05 0.04 0.04 0.04
0.02 0.02 0.02 0.01 0.01 0.01 0.01 0.01 0.02 0.02 0.02 0.01 0.01 0.01 0.01 0.01 0.02 0.03 0.03 0.03 0.04 0.04 0.05 0.05 0.04 0.05 0.05 0.05 0.05 0.06 0.06 0.05 0.05 0.05 0.05 0.05 0.06 0.06 0.06 0.06 0.05 0.04 0.04
0.02 0.03 0.03 0.02 0.02 0.01 0.01 0.01 0.01 0.02 0.02 0.01 0.01 0.01 0.01 0.01 0.01 0.02 0.02 0.02 0.04 0.03 0.04 0.05 0.04 0.04 0.05 0.06 0.06 0.06 0.05 0.04 0.04 0.05 0.06 0.06 0.06 0.06 0.06 0.06 0.06 0.04 0.03
0.02 0.03 0.03 0.03 0.02 0.02 0.02 0.01 0.01 0.01 0.01 0.01 0.01 0.01 0.01 0.01 0.01 0.01 0.01 0.02 0.03 0.03 0.03 0.04 0.04 0.05 0.05 0.06 0.06 0.07 0.06 0.05 0.05 0.05 0.05 0.06 0.05 0.05 0.05 0.05 0.05 0.05 0.04
0.02 0.02 0.02 0.02 0.02 0.02 0.02 0.02 0.01 0.01 0.01 0.01 0.01 0.01 0.01 0.02 0.02 0.02 0.01 0.02 0.02 0.03 0.03 0.03 0.04 0.04 0.05 0.06 0.07 0.08 0.07 0.07 0.07 0.07 0.07 0.07 0.06 0.07 0.06 0.04 0.04 0.04 0.04
0.01 0.01 0.02 0.02 0.03 0.02 0.02 0.03 0.02 0.02 0.02 0.02 0.02 0.01 0.02 0.02 0.02 0.02 0.02 0.02 0.02 0.02 0.03 0.03 0.04 0.04 0.05 0.05 0.06 0.07 0.07 0.08 0.09 0.09 0.08 0.07 0.06 0.07 0.07 0.05 0.04 0.04 0.03
0.01 0.01 0.01 0.02 0.02 0.02 0.03 0.03 0.04 0.04 0.04 0.05 0.04 0.02 0.02 0.02 0.02 0.03 0.02 0.02 0.02 0.02 0.02 0.03 0.03 0.03 0.04 0.05 0.05 0.07 0.08 0.07 0.08 0.08 0.08 0.07 0.07 0.07 0.07 0.06 0.06 0.05 0.04
0.01 0.01 0.01 0.01 0.02 0.02 0.03 0.04 0.04 0.05 0.05 0.06 0.05 0.03 0.02 0.02 0.03 0.03 0.02 0.02 0.02 0.03 0.03 0.03 0.03 0.03 0.03 0.04 0.05 0.06 0.08 0.08 0.07 0.08 0.08 0.08 0.08 0.09 0.07 0.06 0.06 0.06 0.05
0.00 0.01 0.01 0.01 0.01 0.02 0.03 0.04 0.04 0.05 0.06 0.06 0.06 0.04 0.03 0.03 0.02 0.03 0.03 0.03 0.03 0.04 0.04 0.04 0.04 0.04 0.04 0.04 0.05 0.06 0.07 0.07 0.07 0.07 0.08 0.09 0.09 0.10 0.10 0.07 0.05 0.04 0.04
0.01 0.01 0.01 0.01 0.01 0.01 0.02 0.02 0.03 0.04 0.05 0.05 0.05 0.05 0.04 0.03 0.03 0.03 0.04 0.04 0.04 0.05 0.06 0.05 0.05 0.05 0.05 0.05 0.06 0.05 0.05 0.05 0.06 0.06 0.07 0.07 0.08 0.09 0.09 0.06 0.04 0.04 0.04
0.00 0.00 0.01 0.01 0.01 0.01 0.01 0.01 0.02 0.03 0.04 0.04 0.04 0.05 0.05 0.05 0.05 0.04 0.04 0.04 0.05 0.05 0.06 0.06 0.05 0.05 0.05 0.05 0.05 0.05 0.05 0.05 0.05 0.04 0.04 0.05 0.05 0.06 0.06 0.04 0.03 0.03 0.03
MSLP
1033.69 1034.08 1034.43 1034.73 1034.97 1035.11 1035.14 1035.04 1034.81 1034.48 1034.08 1033.66 1033.26 1032.91 1032.63 1032.42 1032.24 1032.05 1031.79 1031.45 1030.99 1030.42 1029.77 1029.08 1028.38 1027.72 1027.11 1026.54 1025.99 1025.41 1024.76 1024.01 1023.14 1022.16 1021.10 1020.02 1018.96 1017.98 1017.11 1016.38 1015.76 1015.25 1014.81
1033.27 1033.73 1034.15 1034.51 1034.81 1035.01 1035.10 1035.06 1034.90 1034.64 1034.31 1033.94 1033.59 1033.27 1033.00 1032.77 1032.56 1032.34 1032.05 1031.68 1031.22 1030.67 1030.05 1029.40 1028.76 1028.15 1027.58 1027.05 1026.52 1025.97 1025.33 1024.60 1023.74 1022.78 1021.73 1020.65 1019.58 1018.57 1017.65 1016.84 1016.13 1015.52 1014.97
1032.71 1033.25 1033.74 1034.16 1034.51 1034.77 1034.93 1034.97 1034.89 1034.72 1034.48 1034.19 1033.90 1033.61 1033.35 1033.11 1032.86 1032.59 1032.26 1031.87 1031.40 1030.86 1030.27 1029.67 1029.08 1028.52 1028.00 1027.50 1026.99 1026.45 1025.84 1025.12 1024.30 1023.37 1022.37 1021.33 1020.29 1019.29 1018.35 1017.49 1016.72 1016.01 1015.36
1032.05 1032.67 1033.23 1033.71 1034.12 1034.44 1034.66 1034.78 1034.80 1034.73 1034.58 1034.39 1034.16 1033.91 1033.66 1033.40 1033.12 1032.80 1032.44 1032.02 1031.54 1031.02 1030.46 1029.91 1029.36 1028.85 1028.35 1027.87 1027.38 1026.84 1026.24 1025.55 1024.77 1023.90 1022.97 1022.00 1021.03 1020.07 1019.15 1018.28 1017.45 1016.66 1015.90
1031.34 1032.04 1032.67 1033.21 1033.67 1034.05 1034.33 1034.53 1034.63 1034.66 1034.61 1034.50 1034.34 1034.14 1033.90 1033.63 1033.32 1032.97 1032.57 1032.13 1031.66 1031.15 1030.63 1030.11 1029.60 1029.11 1028.63 1028.15 1027.65 1027.11 1026.52 1025.85 1025.12 1024.32 1023.47 1022.60 1021.72 1020.83 1019.95 1019.09 1018.23 1017.37 1016.52
1030.66 1031.43 1032.12 1032.72 1033.22 1033.64 1033.97 1034.23 1034.41 1034.51 1034.55 1034.51 1034.42 1034.26 1034.04 1033.77 1033.45 1033.07 1032.66 1032.21 1031.74 1031.25 1030.76 1030.28 1029.79 1029.32 1028.83 1028.34 1027.82 1027.26 1026.66 1026.01 1025.31 1024.59 1023.83 1023.06 1022.28 1021.48 1020.66 1019.82 1018.95 1018.04 1017.11
1030.06 1030.89 1031.62 1032.26 1032.79 1033.24 1033.61 1033.91 1034.14 1034.30 1034.40 1034.43 1034.38 1034.26 1034.07 1033.81 1033.48 1033.10 1032.69 1032.24 1031.79 1031.33 1030.86 1030.40 1029.93 1029.46 1028.96 1028.43 1027.88 1027.29 1026.67 1026.02 1025.36 1024.70 1024.02 1023.35 1022.66 1021.95 1021.20 1020.40 1019.53 1018.59 1017.60
1029.57 1030.43 1031.20 1031.85 1032.40 1032.86 1033.25 1033.57 1033.83 1034.04 1034.18 1034.25 1034.24 1034.15 1033.98 1033.72 1033.41 1033.04 1032.64 1032.22 1031.79 1031.36 1030.92 1030.47 1030.01 1029.53 1029.00 1028.44 1027.84 1027.22 1026.57 1025.92 1025.28 1024.66 1024.05 1023.45 1022.85 1022.22 1021.53 1020.77 1019.91 1018.96 1017.94
1029.17 1030.04 1030.81 1031.47 1032.02 1032.49 1032.88 1033.22 1033.50 1033.72 1033.89 1033.98 1033.99 1033.93 1033.77 1033.54 1033.24 1032.90 1032.52 1032.13 1031.73 1031.33 1030.92 1030.49 1030.03 1029.52 1028.98 1028.38 1027.74 1027.07 1026.40 1025.73 1025.10 1024.50 1023.94 1023.40 1022.85 1022.28 1021.65 1020.92 1020.09 1019.15 1018.11
1028.81 1029.66 1030.42 1031.07 1031.62 1032.09 1032.49 1032.83 1033.13 1033.36 1033.54 1033.65 1033.68 1033.62 1033.48 1033.27 1033.00 1032.68 1032.34 1031.98 1031.61 1031.24 1030.85 1030.43 1029.97 1029.45 1028.88 1028.25 1027.58 1026.88 1026.18 1025.50 1024.86 1024.28 1023.74 1023.22 1022.72 1022.18 1021.59 1020.90 1020.10 1019.19 1018.17
1028.41 1029.22 1029.95 1030.59 1031.15 1031.63 1032.05 1032.41 1032.71 1032.97 1033.16 1033.27 1033.31 1033.26 1033.14 1032.94 1032.69 1032.40 1032.09 1031.77 1031.43 1031.08 1030.71 1030.30 1029.84 1029.31 1028.73 1028.08 1027.38 1026.67 1025.95 1025.26 1024.62 1024.03 1023.49 1022.99 1022.50 1021.98 1021.41 1020.76 1020.00 1019.13 1018.14
1027.92 1028.68 1029.38 1030.01 1030.58 1031.09 1031.54 1031.93 1032.27 1032.54 1032.75 1032.88 1032.92 1032.88 1032.77 1032.59 1032.36 1032.09 1031.81 1031.50 1031.19 1030.86 1030.50 1030.09 1029.63 1029.10 1028.51 1027.86 1027.16 1026.45 1025.73 1025.04 1024.39 1023.80 1023.25 1022.74 1022.25 1021.74 1021.18 1020.56 1019.84 1019.02 1018.09
1027.31 1028.02 1028.69 1029.32 1029.92 1030.47 1030.97 1031.42 1031.80 1032.11 1032.34 1032.48 1032.53 1032.50 1032.39 1032.22 1032.00 1031.75 1031.48 1031.20 1030.90 1030.58 1030.22 1029.82 1029.35 1028.83 1028.24 1027.60 1026.92 1026.22 1025.51 1024.83 1024.19 1023.59 1023.03 1022.50 1021.99 1021.48 1020.93 1020.33 1019.65 1018.89 1018.03
1026.61 1027.27 1027.92 1028.57 1029.21 1029.81 1030.38 1030.89 1031.32 1031.67 1031.93 1032.09 1032.15 1032.12 1032.01 1031.85 1031.64 1031.40 1031.13 1030.85 1030.56 1030.23 1029.87 1029.46 1029.00 1028.48 1027.91 1027.29 1026.63 1025.96 1025.28 1024.62 1023.99 1023.38 1022.81 1022.26 1021.73 1021.20 1020.65 1020.07 1019.43 1018.72 1017.93
1025.90 1026.51 1027.16 1027.83 1028.51 1029.17 1029.80 1030.38 1030.86 1031.25 1031.54 1031.70 1031.77 1031.74 1031.63 1031.46 1031.25 1031.01 1030.75 1030.47 1030.16 1029.83 1029.46 1029.04 1028.58 1028.07 1027.51 1026.92 1026.29 1025.66 1025.01 1024.38 1023.75 1023.15 1022.56 1021.99 1021.44 1020.88 1020.33 1019.75 1019.13 1018.47 1017.74
1025.26 1025.85 1026.49 1027.18 1027.90 1028.61 1029.29 1029.91 1030.44 1030.86 1031.15 1031.32 1031.38 1031.34 1031.22 1031.05 1030.83 1030.59 1030.32 1030.03 1029.72 1029.37 1028.99 1028.56 1028.10 1027.59 1027.05 1026.48 1025.89 1025.29 1024.68 1024.07 1023.46 1022.85 1022.25 1021.66 1021.07 1020.49 1019.91 1019.33 1018.73 1018.10 1017.40
1024.79 1025.35 1025.99 1026.69 1027.43 1028.17 1028.88 1029.53 1030.07 1030.49 1030.77 1030.93 1030.97 1030.92 1030.78 1030.60 1030.38 1030.12 1029.85 1029.56 1029.23 1028.87 1028.48 1028.04 1027.56 1027.06 1026.52 1025.98 1025.41 1024.84 1024.26 1023.67 1023.07 1022.46 1021.85 1021.23 1020.61 1020.00 1019.40 1018.80 1018.20 1017.58 1016.90
1024.53 1025.07 1025.70 1026.39 1027.12 1027.86 1028.57 1029.21 1029.73 1030.12 1030.38 1030.51 1030.52 1030.44 1030.29 1030.10 1029.87 1029.62 1029.34 1029.04 1028.71 1028.34 1027.93 1027.48 1026.99 1026.48 1025.96 1025.42 1024.88 1024.33 1023.77 1023.19 1022.59 1021.98 1021.34 1020.70 1020.05 1019.40 1018.77 1018.16 1017.54 1016.91 1016.24
1024.48 1024.99 1025.59 1026.25 1026.96 1027.67 1028.34 1028.93 1029.40 1029.75 1029.96 1030.05 1030.02 1029.92 1029.75 1029.55 1029.32 1029.07 1028.80 1028.50 1028.16 1027.79 1027.37 1026.90 1026.41 1025.90 1025.37 1024.83 1024.30 1023.76 1023.21 1022.64 1022.04 1021.42 1020.77 1020.10 1019.42 1018.75 1018.09 1017.45 1016.82 1016.17 1015.48
1024.58 1025.05 1025.60 1026.21 1026.87 1027.52 1028.12 1028.65 1029.06 1029.34 1029.49 1029.53 1029.47 1029.34 1029.16 1028.96 1028.73 1028.49 1028.23 1027.94 1027.61 1027.22 1026.80 1026.33 1025.82 1025.30 1024.77 1024.23 1023.70 1023.16 1022.62 1022.05 1021.46 1020.82 1020.16 1019.48 1018.78 1018.09 1017.41 1016.75 1016.10 1015.43 1014.72
1024.72 1025.14 1025.63 1026.18 1026.77 1027.34 1027.87 1028.31 1028.65 1028.86 1028.96 1028.95 1028.87 1028.72 1028.54 1028.34 1028.13 1027.90 1027.65 1027.37 1027.04 1026.66 1026.23 1025.75 1025.24 1024.71 1024.17 1023.63 1023.10 1022.57 1022.03 1021.47 1020.88 1020.25 1019.59 1018.90 1018.20 1017.50 1016.81 1016.14 1015.48 1014.80 1014.07
1024.80 1025.17 1025.60 1026.08 1026.58 1027.07 1027.52 1027.89 1028.15 1028.31 1028.36 1028.32 1028.21 1028.06 1027.88 1027.70 1027.50 1027.29 1027.06 1026.78 1026.46 1026.08 1025.65 1025.16 1024.65 1024.11 1023.58 1023.05 1022.52 1022.00 1021.47 1020.93 1020.35 1019.74 1019.09 1018.41 1017.72 1017.03 1016.35 1015.68 1015.02 1014.34 1013.61
1024.76 1025.06 1025.42 1025.83 1026.26 1026.68 1027.05 1027.35 1027.55 1027.66 1027.68 1027.62 1027.51 1027.36 1027.20 1027.03 1026.86 1026.66 1026.44 1026.17 1025.85 1025.47 1025.04 1024.55 1024.04 1023.51 1022.98 1022.46 1021.95 1021.46 1020.95 1020.43 1019.88 1019.30 1018.68 1018.03 1017.37 1016.70 1016.04 1015.39 1014.74 1014.07 1013.35
1024.58 1024.81 1025.10 1025.43 1025.79 1026.14 1026.45 1026.69 1026.85 1026.93 1026.93 1026.86 1026.76 1026.63 1026.49 1026.34 1026.18 1026.00 1025.79 1025.52 1025.20 1024.82 1024.38 1023.90 1023.39 1022.88 1022.37 1021.87 1021.39 1020.93 1020.47 1019.99 1019.48 1018.94 1018.37 1017.76 1017.14 1016.51 1015.88 1015.26 1014.64 1013.99 1013.28
1024.25 1024.42 1024.64 1024.91 1025.21 1025.49 1025.74 1025.94 1026.07 1026.12 1026.12 1026.06 1025.98 1025.87 1025.75 1025.62 1025.48 1025.30 1025.09 1024.83 1024.50 1024.12 1023.68 1023.20 1022.70 1022.21 1021.72 1021.26 1020.83 1020.42 1020.00 1019.58 1019.13 1018.65 1018.13 1017.58 1017.00 1016.42 1015.83 1015.25 1014.65 1014.03 1013.34
1023.86 1023.96 1024.13 1024.34 1024.56 1024.79 1024.99 1025.14 1025.24 1025.28 1025.27 1025.23 1025.16 1025.07 1024.97 1024.86 1024.73 1024.56 1024.35 1024.08 1023.75 1023.36 1022.92 1022.45 1021.97 1021.50 1021.06 1020.64 1020.26 1019.90 1019.55 1019.19 1018.81 1018.39 1017.93 1017.43 1016.91 1016.37 1015.83 1015.28 1014.71 1014.11 1013.44
Thickness
5494 5494 5495 5497 5501 5504 5508 5512 5517 5520 5524 5529 5535 5540 5543 5546 5548 5551 5554 5557 5559 5560 5562 5564 5566 5568 5571 5573 5575 5577 5579 5580 5582 5584 5587 5590 5593 5596 5598 5601 5604 5606 5608
5482 5482 5482 5483 5485 5488 5491 5496 5500 5504 5507 5512 5516 5522 5527 5531 5535 5537 5541 5544 5547 5549 5551 5553 5555 5557 5559 5561 5564 5566 5568 5570 5572 5575 5577 5581 5584 5587 5589 5591 5594 5597 5599
5468 5467 5467 5468 5470 5471 5474 5478 5483 5487 5491 5496 5501 5507 5513 5518 5521 5525 5529 5532 5534 5537 5539 5541 5543 5546 5548 5550 5552 5554 5557 5560 5561 5564 5568 5572 5577 5578 5580 5582 5584 5587 5589
5453 5452 5452 5453 5454 5455 5457 5461 5465 5470 5475 5479 5484 5490 5496 5503 5507 5510 5514 5519 5522 5525 5527 5529 5532 5534 5536 5538 5540 5542 5545 5548 5550 5552 5555 5561 5566 5567 5570 5572 5575 5577 5579
5439 5438 5437 5437 5438 5439 5441 5445 5450 5455 5459 5463 5468 5474 5480 5486 5491 5496 5500 5505 5509 5512 5514 5517 5520 5522 5524 5526 5528 5531 5533 5536 5540 5542 5544 5547 5551 5556 5559 5563 5565 5566 5568
5426 5425 5424 5423 5424 5425 5427 5430 5434 5439 5443 5447 5452 5457 5463 5470 5476 5481 5486 5491 5495 5498 5501 5504 5507 5509 5512 5514 5516 5519 5521 5525 5529 5532 5534 5537 5541 5545 5549 5554 5556 5557 5559
5414 5412 5412 5411 5411 5412 5413 5416 5419 5424 5428 5433 5437 5442 5447 5453 5459 5466 5471 5476 5481 5485 5488 5490 5494 5496 5499 5501 5504 5506 5510 5513 5517 5521 5524 5527 5530 5534 5538 5541 5544 5546 5549
5402 5400 5399 5398 5398 5399 5399 5401 5405 5409 5413 5418 5423 5427 5432 5437 5443 5449 5455 5460 5466 5470 5473 5475 5479 5482 5485 5488 5491 5494 5497 5501 5505 5509 5512 5515 5518 5521 5525 5529 5532 5534 5538
5390 5388 5387 5385 5385 5386 5386 5388 5390 5394 5399 5403 5408 5413 5417 5422 5428 5434 5440 5445 5449 5454 5458 5461 5464 5468 5471 5475 5478 5481 5485 5488 5491 5496 5499 5502 5506 5508 5512 5516 5521 5524 5529
5378 5376 5374 5373 5373 5373 5374 5376 5377 5380 5384 5388 5392 5397 5402 5408 5413 5419 5424 5429 5434 5438 5443 5446 5450 5454 5458 5461 5464 5468 5471 5474 5478 5482 5486 5489 5493 5496 5499 5504 5509 5513 5518
5366 5364 5363 5362 5361 5362 5363 5363 5365 5368 5371 5375 5378 5382 5387 5393 5398 5404 5408 5414 5419 5423 5428 5432 5436 5441 5445 5448 5451 5454 5458 5461 5465 5468 5473 5476 5479 5483 5487 5491 5495 5500 5505
5353 5352 5350 5350 5351 5351 5351 5351 5353 5355 5357 5360 5363 5368 5372 5377 5383 5388 5394 5399 5404 5409 5414 5419 5423 5427 5431 5435 5438 5442 5445 5448 5452 5455 5459 5463 5466 5470 5475 5479 5483 5488 5493
5343 5341 5339 5338 5339 5339 5339 5339 5341 5342 5344 5346 5350 5354 5358 5364 5369 5374 5379 5384 5389 5395 5400 5405 5410 5414 5418 5422 5426 5429 5432 5436 5440 5443 5447 5451 5455 5460 5463 5467 5471 5475 5480
5332 5330 5328 5327 5326 5326 5327 5328 5329 5330 5331 5334 5337 5341 5345 5349 5355 5360 5365 5370 5375 5381 5386 5391 5396 5400 5405 5409 5413 5416 5420 5424 5428 5432 5436 5440 5445 5450 5452 5456 5460 5464 5467
5322 5319 5317 5316 5315 5315 5316 5317 5317 5318 5320 5322 5325 5328 5331 5336 5340 5346 5351 5356 5361 5366 5372 5378 5383 5387 5392 5397 5402 5405 5410 5413 5418 5422 5426 5430 5434 5438 5441 5445 5450 5452 5456
5311 5308 5306 5304 5304 5303 5304 5305 5306 5307 5309 5311 5313 5316 5319 5323 5328 5333 5338 5343 5348 5353 5358 5364 5369 5375 5380 5386 5390 5395 5399 5403 5408 5413 5417 5420 5424 5427 5430 5435 5439 5442 5446
5299 5297 5295 5293 5292 5291 5291 5293 5294 5296 5298 5300 5302 5305 5308 5312 5316 5321 5325 5330 5335 5340 5345 5351 5356 5363 5369 5374 5378 5383 5388 5393 5397 5402 5406 5410 5414 5417 5420 5424 5427 5431 5435
5287 5285 5283 5282 5281 5280 5280 5281 5283 5285 5287 5289 5291 5294 5297 5301 5305 5309 5313 5318 5323 5328 5334 5340 5345 5352 5358 5362 5367 5372 5377 5382 5388 5392 5396 5400 5404 5407 5410 5414 5417 5421 5425
5276 5273 5271 5270 5270 5269 5269 5270 5273 5274 5276 5278 5280 5282 5285 5289 5293 5297 5302 5306 5311 5317 5322 5328 5334 5340 5347 5351 5356 5361 5367 5373 5378 5382 5386 5390 5394 5398 5400 5403 5407 5410 5414
5266 5263 5261 5260 5259 5259 5258 5260 5262 5263 5265 5267 5269 5272 5275 5278 5282 5286 5290 5295 5300 5305 5311 5317 5322 5328 5335 5340 5346 5350 5357 5364 5369 5373 5376 5380 5384 5387 5389 5393 5397 5401 5404
5257 5253 5251 5250 5249 5248 5248 5250 5251 5252 5254 5256 5260 5263 5265 5268 5272 5276 5280 5284 5289 5295 5300 5306 5312 5318 5323 5329 5335 5340 5347 5353 5358 5363 5367 5370 5373 5377 5380 5384 5388 5392 5394
5247 5244 5242 5241 5240 5239 5239 5240 5241 5243 5244 5247 5251 5254 5257 5259 5263 5267 5271 5275 5279 5285 5290 5296 5302 5307 5313 5319 5325 5331 5337 5342 5347 5352 5356 5359 5362 5366 5370 5374 5377 5380 5382
5238 5235 5233 5232 5231 5230 5229 5230 5232 5233 5235 5239 5242 5245 5248 5251 5254 5258 5262 5265 5270 5275 5281 5286 5292 5298 5303 5309 5315 5321 5326 5332 5337 5342 5345 5348 5351 5355 5359 5363 5366 5369 5372
5229 5226 5224 5223 5222 5221 5220 5220 5222 5224 5226 5230 5233 5236 5240 5243 5246 5249 5252 5256 5260 5265 5270 5276 5282 5288 5293 5299 5305 5311 5316 5322 5326 5331 5334 5338 5341 5344 5348 5351 5355 5359 5363
5220 5216 5214 5213 5212 5212 5212 5212 5213 5215 5217 5221 5224 5227 5231 5234 5238 5241 5243 5247 5251 5254 5259 5266 5271 5277 5284 5289 5294 5300 5306 5311 5316 5320 5323 5327 5330 5334 5337 5341 5345 5348 5352
5210 5208 5205 5204 5204 5203 5203 5204 5205 5206 5208 5212 5215 5218 5222 5226 5229 5233 5238 5240 5243 5247 5251 5255 5261 5267 5273 5279 5284 5290 5296 5301 5305 5308 5313 5317 5320 5324 5327 5331 5334 5338 5341